FW8253 Weather Reports


time (UTC)temp
C
wind
direction
speed
KPH
gust
KPH
rain 1hr
cm
rain 24hr
cm
rain mn
cm
humidity
%
barometer
mb
20260906093614 22 232 0.0 0.0 0.00 0.00 0.00 99 1012.3
20260906093108 22 232 0.0 0.0 0.00 0.00 0.00 99 1012.2
20260906092604 22 231 0.0 0.0 0.00 0.00 0.00 99 1012.2
20260906092059 22 231 0.0 0.0 0.00 0.00 0.00 99 1012.2
20260906091554 22 231 0.0 0.0 0.00 0.00 0.00 99 1012.1
20260906091051 22 231 0.0 0.0 0.00 0.00 0.00 98 1012.0
20260906090551 22 230 0.0 0.0 0.00 0.00 0.00 98 1012.0
20260906090046 22 229 0.0 0.0 0.00 0.00 0.00 98 1011.8
20260906085544 22 229 0.0 0.0 0.00 0.00 0.00 98 1011.9
20260906085044 22 218 0.0 0.0 0.00 0.00 0.00 98 1011.9
20260906084539 22 196 0.0 0.0 0.00 0.00 0.00 98 1012.0
20260906084037 22 196 0.0 0.0 0.00 0.00 0.00 98 1011.9
20260906083534 22 196 0.0 0.0 0.00 0.00 0.00 98 1012.0
20260906083033 22 196 0.0 0.0 0.00 0.00 0.00 98 1012.0
20260906082528 22 215 0.0 0.0 0.00 0.00 0.00 98 1012.0
20260906082024 22 215 0.0 0.0 0.00 0.00 0.00 98 1012.0
20260906081520 22 215 0.0 0.0 0.00 0.00 0.00 97 1011.8
20260906081015 22 215 0.0 0.0 0.00 0.00 0.00 97 1011.9
20260906080512 22 215 0.0 0.0 0.00 0.00 0.00 97 1011.9
20260906080008 22 215 0.0 0.0 0.00 0.00 0.00 97 1011.7
20260906075502 22 204 0.0 0.0 0.00 0.00 0.00 97 1011.6
20260906074956 22 206 0.0 0.0 0.00 0.00 0.00 97 1011.7
20260906074451 22 207 0.0 0.0 0.00 0.00 0.00 97 1011.6
20260906073949 22 222 0.0 0.0 0.00 0.00 0.00 97 1011.6
20260906073444 22 222 0.0 0.0 0.00 0.00 0.00 97 1011.8
20260906072941 22 222 0.0 0.0 0.00 0.00 0.00 97 1011.9
20260906072436 22 225 0.0 0.0 0.00 0.00 0.00 96 1011.9
20260906071932 22 225 0.0 0.0 0.00 0.00 0.00 96 1011.8
20260906071427 22 225 0.0 0.0 0.00 0.00 0.00 96 1011.7
20260906070923 23 197 0.0 0.0 0.00 0.00 0.00 96 1011.8
20260906070419 23 234 0.0 0.0 0.00 0.00 0.00 96 1011.8
20260906065915 23 232 0.0 0.0 0.00 0.00 0.00 96 1011.8
20260906065409 23 225 0.0 0.0 0.00 0.00 0.00 95 1012.1
20260906064905 23 237 0.0 0.0 0.00 0.00 0.00 95 1011.7
20260906064401 23 226 0.0 0.0 0.00 0.00 0.00 95 1011.9
20260906063900 23 225 0.0 0.0 0.00 0.00 0.00 95 1011.6
20260906063356 23 225 0.0 0.0 0.00 0.00 0.00 94 1011.8
20260906062851 23 225 0.0 0.0 0.00 0.00 0.00 94 1011.9
20260906062350 23 220 0.0 0.0 0.00 0.00 0.00 94 1012.0
20260906061845 23 230 0.0 0.0 0.00 0.00 0.00 94 1011.9
20260906061336 23 232 0.0 0.0 0.00 0.00 0.00 94 1012.1
20260906060830 23 233 0.0 0.0 0.00 0.00 0.00 94 1012.0
20260906060329 23 230 0.0 0.0 0.00 0.00 0.00 94 1012.2
20260906055824 23 224 0.0 0.0 0.00 0.00 0.00 94 1012.1
20260906055319 23 173 0.0 0.0 0.00 0.00 0.00 93 1012.2
20260906054815 23 173 0.0 0.0 0.00 0.00 0.00 93 1012.1
20260906054310 23 170 0.0 0.0 0.00 0.00 0.00 94 1012.3
20260906053806 23 176 0.0 0.0 0.00 0.00 0.00 94 1012.3
20260906053301 23 191 0.0 0.0 0.00 0.00 0.00 93 1012.2
20260906052756 23 190 0.0 0.0 0.00 0.00 0.00 93 1012.4
20260906052253 23 194 0.0 0.0 0.00 0.00 0.00 94 1012.7
20260906051750 23 219 0.0 0.0 0.00 0.00 0.00 94 1012.6
20260906051249 23 230 0.0 0.0 0.00 0.00 0.00 94 1012.5
20260906050744 23 230 0.0 0.0 0.00 0.00 0.00 94 1012.6
20260906050239 23 220 0.0 0.0 0.00 0.00 0.00 93 1012.9
20260906045738 23 221 0.0 0.0 0.00 0.00 0.00 93 1013.0
20260906045233 23 235 0.0 0.0 0.00 0.00 0.00 93 1012.9
20260906044729 23 235 0.0 0.0 0.00 0.00 0.00 93 1013.0
20260906044224 23 190 0.0 0.0 0.00 0.00 0.00 92 1012.7
20260906043720 23 226 0.0 0.0 0.00 0.00 0.00 92 1012.7
20260906043216 23 239 0.0 0.0 0.00 0.00 0.00 92 1012.7
20260906042715 24 226 0.0 0.0 0.00 0.00 0.00 91 1012.7
20260906042214 24 225 0.0 0.0 0.00 0.00 0.00 90 1012.9
20260906041710 24 225 0.0 0.0 0.00 0.00 0.00 90 1012.9
20260906041205 24 203 0.0 0.0 0.00 0.00 0.00 91 1012.8
20260906040701 24 236 0.0 0.0 0.00 0.00 0.00 91 1013.0
20260906040156 24 237 0.0 0.0 0.00 0.00 0.00 90 1013.0
20260906035651 25 235 0.0 0.0 0.00 0.00 0.00 90 1013.0
20260906035147 25 222 0.0 0.0 0.00 0.00 0.00 88 1012.9
20260906034641 25 225 0.0 0.0 0.00 0.00 0.00 88 1013.1
20260906034136 25 177 0.0 0.0 0.00 0.00 0.00 88 1013.0
20260906033632 25 215 0.0 0.0 0.00 0.00 0.00 88 1013.1
20260906033126 25 219 0.0 0.0 0.00 0.00 0.00 88 1013.0
20260906032623 25 192 0.0 0.0 0.00 0.00 0.00 88 1013.2
20260906032122 25 192 0.0 0.0 0.00 0.00 0.00 88 1013.2
20260906031618 25 192 0.0 0.0 0.00 0.00 0.00 88 1013.1
20260906031113 25 191 0.0 0.0 0.00 0.00 0.00 87 1013.2
20260906030612 25 209 0.0 0.0 0.00 0.00 0.00 87 1013.5
20260906030108 25 172 0.0 0.0 0.00 0.00 0.00 88 1013.5
20260906025607 25 174 0.0 0.0 0.00 0.00 0.00 87 1013.3
20260906025106 25 174 0.0 0.0 0.00 0.00 0.00 87 1013.3
20260906024601 25 172 0.0 0.0 0.00 0.00 0.00 87 1013.5
20260906024055 25 176 0.0 0.0 0.00 0.00 0.00 87 1013.2
20260906023552 25 175 0.0 0.0 0.00 0.00 0.00 87 1013.4
20260906023046 25 230 0.0 0.0 0.00 0.00 0.00 87 1013.5
20260906022541 25 231 0.0 0.0 0.00 0.00 0.00 87 1013.6
20260906022037 25 231 0.0 0.0 0.00 0.00 0.00 86 1013.4
20260906021532 25 227 0.0 0.0 0.00 0.00 0.00 86 1013.6
20260906021031 25 219 0.0 0.0 0.00 0.00 0.00 86 1013.7
20260906020531 25 219 0.0 0.0 0.00 0.00 0.00 86 1013.5
20260906020031 25 188 0.0 0.0 0.00 0.00 0.00 86 1013.7
20260906015529 25 235 0.0 0.0 0.00 0.00 0.00 86 1013.7
20260906015024 25 237 0.0 0.0 0.00 0.00 0.00 86 1013.5
20260906014519 25 235 0.0 0.0 0.00 0.00 0.00 85 1013.6
20260906014015 25 204 0.0 0.0 0.00 0.00 0.00 84 1013.4
20260906013510 25 178 0.0 0.0 0.00 0.00 0.00 84 1012.9
20260906013006 25 250 0.0 0.0 0.00 0.00 0.00 84 1012.8
20260906012501 26 241 0.0 0.0 0.00 0.00 0.00 83 1012.7
20260906012000 26 217 0.0 0.0 0.00 0.00 0.00 83 1012.5
20260906011456 26 228 0.0 0.0 0.00 0.00 0.00 82 1012.4
20260906010950 26 249 0.0 0.0 0.00 0.00 0.00 82 1012.3
20260906010446 26 251 0.0 0.0 0.00 0.00 0.00 82 1012.3
20260906005943 26 220 0.0 0.0 0.00 0.00 0.00 81 1012.4
20260906005442 26 194 0.0 0.0 0.00 0.00 0.00 80 1012.0
20260906004940 26 178 0.0 0.0 0.00 0.00 0.00 80 1011.9
20260906004434 26 201 0.0 0.0 0.00 0.00 0.00 80 1011.8
20260906003930 26 177 0.0 0.0 0.00 0.00 0.00 80 1011.7
20260906003425 27 208 0.0 0.0 0.00 0.00 0.00 79 1011.7
20260906002920 27 182 0.0 0.0 0.00 0.00 0.00 78 1011.7
20260906002420 27 191 0.0 0.0 0.00 0.00 0.00 78 1011.4
20260906001915 27 191 0.0 0.0 0.00 0.00 0.00 77 1011.8
20260906001411 27 201 0.0 0.0 0.00 0.00 0.00 77 1011.8
20260906000910 27 233 0.0 0.0 0.00 0.00 0.00 76 1011.9
20260906000406 27 214 0.0 0.0 0.00 0.00 0.00 75 1012.1
20260905235855 27 183 0.0 0.0 0.00 0.00 0.00 74 1012.2
20260905235349 27 231 0.0 0.0 0.00 0.00 0.00 74 1011.9
20260905234844 27 223 0.0 0.0 0.00 0.00 0.00 74 1012.2
20260905234339 27 235 0.0 0.0 0.00 0.00 0.00 74 1012.2
20260905233835 27 80 0.0 0.0 0.00 0.00 0.00 75 1012.2
20260905233329 27 185 0.0 0.0 0.00 0.00 0.00 76 1012.6
20260905232828 27 119 0.0 0.0 0.00 0.00 0.00 77 1012.0
20260905232325 27 212 0.0 0.0 0.00 0.00 0.00 79 1011.9
20260905231820 27 215 0.0 0.0 0.00 0.00 0.00 79 1012.1
20260905231315 27 210 0.0 0.0 0.00 0.00 0.00 78 1011.8
20260905230812 28 198 0.0 0.0 0.00 0.00 0.00 77 1011.8
20260905230309 28 228 0.0 0.0 0.00 0.00 0.00 74 1011.6
20260905225809 28 172 0.0 0.0 0.00 0.00 0.00 73 1011.9
20260905225306 28 275 0.0 0.0 0.00 0.00 0.00 71 1011.7
20260905224804 30 26 0.0 0.0 0.00 0.00 0.00 69 1012.0
20260905224259 31 308 0.0 0.0 0.00 0.00 0.00 64 1012.2
20260905223755 31 11 0.0 0.0 0.00 0.00 0.00 61 1012.1
20260905223252 33 128 0.0 0.0 0.00 0.00 0.00 58 1011.8
20260905222747 35 194 0.0 0.0 0.00 0.00 0.00 61 1011.5
20260905222246 35 253 0.0 0.0 0.00 0.00 0.00 60 1011.1
20260905221742 35 264 0.0 0.0 0.00 0.00 0.00 57 1010.7
20260905221239 35 235 0.0 0.0 0.00 0.00 0.00 59 1010.9
20260905220734 35 229 0.0 0.0 0.00 0.00 0.00 59 1010.7
20260905220230 35 247 0.0 0.0 0.00 0.00 0.00 60 1010.8
20260905215730 35 220 0.0 0.0 0.00 0.00 0.00 60 1010.7
20260905215226 35 242 0.0 0.0 0.00 0.00 0.00 60 1010.5
20260905214721 35 242 0.0 0.0 0.00 0.00 0.00 58 1010.9
20260905214217 36 239 0.0 0.0 0.00 0.00 0.00 59 1010.8
20260905213712 36 232 0.0 0.0 0.00 0.00 0.00 57 1010.3
20260905213208 37 240 0.0 0.0 0.00 0.00 0.00 53 1010.6
20260905212703 37 227 0.0 0.0 0.00 0.00 0.00 51 1010.5
20260905212202 37 234 0.0 0.0 0.00 0.00 0.00 50 1010.5
20260905211656 37 240 0.0 0.0 0.00 0.00 0.00 51 1010.7
20260905211152 37 56 0.0 0.0 0.00 0.00 0.00 52 1010.6
20260905210649 37 218 0.0 0.0 0.00 0.00 0.00 51 1010.8
20260905210148 37 236 0.0 0.0 0.00 0.00 0.00 52 1010.6
20260905205647 37 224 0.0 0.0 0.00 0.00 0.00 50 1010.9
20260905205147 38 245 0.0 0.0 0.00 0.00 0.00 50 1011.0
20260905204647 37 256 0.0 0.0 0.00 0.00 0.00 51 1010.8
20260905204142 38 247 0.0 0.0 0.00 0.00 0.00 52 1010.6
20260905203637 37 234 0.0 0.0 0.00 0.00 0.00 52 1010.6
20260905203132 38 260 0.0 0.0 0.00 0.00 0.00 50 1010.7
20260905202628 38 290 0.0 0.0 0.00 0.00 0.00 49 1010.6
20260905202123 38 233 0.0 0.0 0.00 0.00 0.00 51 1010.7
20260905201619 38 237 0.0 0.0 0.00 0.00 0.00 49 1010.8
20260905201118 38 225 0.0 0.0 0.00 0.00 0.00 51 1011.1
20260905200614 38 187 0.0 0.0 0.00 0.00 0.00 49 1010.9
20260905200109 39 222 0.0 0.0 0.00 0.00 0.00 49 1011.1
20260905195607 40 232 0.0 0.0 0.00 0.00 0.00 48 1010.9
20260905195103 38 201 0.0 0.0 0.00 0.00 0.00 50 1011.0
20260905194603 38 209 0.0 0.0 0.00 0.00 0.00 53 1011.2
20260905194102 38 233 0.0 0.0 0.00 0.00 0.00 51 1011.1
20260905193557 38 259 0.0 0.0 0.00 0.00 0.00 51 1011.0
20260905193052 38 223 0.0 0.0 0.00 0.00 0.00 48 1011.0
20260905192547 38 220 0.0 0.0 0.00 0.00 0.00 51 1011.2
20260905192044 38 215 0.0 0.0 0.00 0.00 0.00 50 1011.4
20260905191542 38 184 0.0 0.0 0.00 0.00 0.00 49 1011.7
20260905191036 38 241 0.0 0.0 0.00 0.00 0.00 51 1011.5
20260905190534 38 204 0.0 0.0 0.00 0.00 0.00 50 1011.6
20260905190034 38 236 0.0 0.0 0.00 0.00 0.00 50 1011.7
20260905185533 38 231 0.0 0.0 0.00 0.00 0.00 53 1011.8
20260905185033 38 232 0.0 0.0 0.00 0.00 0.00 50 1012.1
20260905184533 38 240 0.0 0.0 0.00 0.00 0.00 49 1012.1
20260905184031 37 157 0.0 0.0 0.00 0.00 0.00 51 1012.2
20260905183526 38 21 0.0 0.0 0.00 0.00 0.00 50 1012.2
20260905183021 37 213 0.0 0.0 0.00 0.00 0.00 51 1012.2
20260905182520 38 235 0.0 0.0 0.00 0.00 0.00 49 1012.5
20260905182015 39 181 0.0 0.0 0.00 0.00 0.00 48 1012.4
20260905181510 38 125 0.0 0.0 0.00 0.00 0.00 49 1012.5
20260905181009 38 158 0.0 0.0 0.00 0.00 0.00 51 1012.6
20260905180504 37 214 0.0 0.0 0.00 0.00 0.00 52 1012.6
20260905175959 37 228 0.0 0.0 0.00 0.00 0.00 52 1012.7
20260905175458 37 230 0.0 0.0 0.00 0.00 0.00 55 1012.9
20260905174954 37 273 0.0 0.0 0.00 0.00 0.00 54 1012.9
20260905174449 36 236 0.0 0.0 0.00 0.00 0.00 54 1013.0
20260905173945 36 205 0.0 0.0 0.00 0.00 0.00 54 1013.0
20260905173441 37 173 0.0 0.0 0.00 0.00 0.00 53 1013.1
20260905172936 36 203 0.0 0.0 0.00 0.00 0.00 54 1013.1
20260905172434 36 309 0.0 0.0 0.00 0.00 0.00 55 1013.3
20260905171930 36 49 0.0 0.0 0.00 0.00 0.00 53 1013.3
20260905171427 36 210 0.0 0.0 0.00 0.00 0.00 56 1013.5
20260905170923 36 249 0.0 0.0 0.00 0.00 0.00 55 1013.3
20260905170419 36 234 0.0 0.0 0.00 0.00 0.00 55 1013.5
20260905165918 36 230 0.0 0.0 0.00 0.00 0.00 57 1013.3
20260905165413 35 253 0.0 0.0 0.00 0.00 0.00 57 1013.7
20260905164909 35 222 0.0 0.0 0.00 0.00 0.00 57 1013.8
20260905164403 36 238 0.0 0.0 0.00 0.00 0.00 56 1013.8
20260905163858 35 233 0.0 0.0 0.00 0.00 0.00 59 1014.1
20260905163355 36 303 0.0 0.0 0.00 0.00 0.00 59 1013.9
20260905162850 36 232 0.0 0.0 0.00 0.00 0.00 59 1014.1
20260905162350 35 164 0.0 0.0 0.00 0.00 0.00 58 1014.4
20260905161845 35 206 0.0 0.0 0.00 0.00 0.00 62 1014.4
20260905161344 35 216 0.0 0.0 0.00 0.00 0.00 61 1014.6
20260905160843 34 205 0.0 0.0 0.00 0.00 0.00 63 1014.7
20260905160337 34 134 0.0 0.0 0.00 0.00 0.00 64 1014.7
20260905155831 34 249 0.0 0.0 0.00 0.00 0.00 67 1014.8
20260905155330 33 181 0.0 0.0 0.00 0.00 0.00 65 1015.0
20260905154825 34 207 0.0 0.0 0.00 0.00 0.00 66 1014.8
20260905154320 34 211 0.0 0.0 0.00 0.00 0.00 66 1014.9
20260905153816 34 222 0.0 0.0 0.00 0.00 0.00 66 1014.8
20260905153312 33 207 0.0 0.0 0.00 0.00 0.00 66 1014.9
20260905152812 32 214 0.0 0.0 0.00 0.00 0.00 70 1015.2
20260905152311 32 219 0.0 0.0 0.00 0.00 0.00 71 1014.9
20260905151806 32 218 0.0 0.0 0.00 0.00 0.00 71 1014.9
20260905151302 32 236 0.0 0.0 0.00 0.00 0.00 72 1015.0
20260905150802 32 186 0.0 0.0 0.00 0.00 0.00 70 1015.2
20260905150301 32 121 0.0 0.0 0.00 0.00 0.00 73 1015.1
20260905145758 32 195 0.0 0.0 0.00 0.00 0.00 73 1015.5
20260905145253 31 139 0.0 0.0 0.00 0.00 0.00 75 1015.5
20260905144752 31 120 0.0 0.0 0.00 0.00 0.00 76 1015.6
20260905144248 30 230 0.0 0.0 0.00 0.00 0.00 79 1015.5
20260905143746 30 165 0.0 0.0 0.00 0.00 0.00 78 1015.4
20260905143241 31 197 0.0 0.0 0.00 0.00 0.00 77 1015.4
20260905142739 30 173 0.0 0.0 0.00 0.00 0.00 81 1015.5
20260905142234 28 203 0.0 0.0 0.00 0.00 0.00 83 1015.6
20260905141730 29 157 0.0 0.0 0.00 0.00 0.00 82 1015.6
20260905141226 28 183 0.0 0.0 0.00 0.00 0.00 84 1015.8
20260905140721 28 255 0.0 0.0 0.00 0.00 0.00 84 1015.7
20260905140215 28 192 0.0 0.0 0.00 0.00 0.00 87 1015.9
20260905135709 28 161 0.0 0.0 0.00 0.00 0.00 86 1015.8
20260905135205 27 348 0.0 0.0 0.00 0.00 0.00 90 1016.0
20260905134704 27 206 0.0 0.0 0.00 0.00 0.00 90 1015.9
20260905134204 27 189 0.0 0.0 0.00 0.00 0.00 92 1015.8
20260905133659 26 220 0.0 0.0 0.00 0.00 0.00 95 1015.8
20260905133154 26 220 0.0 0.0 0.00 0.00 0.00 95 1015.8
20260905132653 26 198 0.0 0.0 0.00 0.00 0.00 95 1015.8
20260905132148 25 227 0.0 0.0 0.00 0.00 0.00 98 1016.0
20260905131643 25 247 0.0 0.0 0.00 0.00 0.00 98 1016.0
20260905131138 25 225 0.0 0.0 0.00 0.00 0.00 99 1016.0
20260905130633 25 257 0.0 0.0 0.00 0.00 0.00 99 1016.1
20260905130133 25 228 0.0 0.0 0.00 0.00 0.00 99 1016.0
20260905125626 25 251 0.0 0.0 0.00 0.00 0.00 99 1016.2
20260905125123 25 209 0.0 0.0 0.00 0.00 0.00 99 1015.9
20260905124619 24 184 0.0 0.0 0.00 0.00 0.00 99 1016.2
20260905124115 24 202 0.0 0.0 0.00 0.00 0.00 99 1015.9
20260905123610 24 211 0.0 0.0 0.00 0.00 0.00 99 1015.8
20260905123107 24 194 0.0 0.0 0.00 0.00 0.00 99 1015.8
20260905122607 24 141 0.0 0.0 0.00 0.00 0.00 99 1015.8
20260905122107 24 205 0.0 0.0 0.00 0.00 0.00 99 1015.9
20260905121601 24 151 0.0 0.0 0.00 0.00 0.00 99 1015.7
20260905121057 23 190 0.0 0.0 0.00 0.00 0.00 99 1015.7
20260905120555 23 233 0.0 0.0 0.00 0.00 0.00 99 1015.7
20260905120051 23 208 0.0 0.0 0.00 0.00 0.00 99 1015.6
20260905115550 23 218 0.0 0.0 0.00 0.00 0.00 99 1015.6
20260905115045 23 218 0.0 0.0 0.00 0.00 0.00 99 1015.4
20260905114544 23 218 0.0 0.0 0.00 0.00 0.00 99 1015.4
20260905114043 23 218 0.0 0.0 0.00 0.00 0.00 99 1015.6
20260905113538 23 218 0.0 0.0 0.00 0.00 0.00 99 1015.5
20260905113034 23 218 0.0 0.0 0.00 0.00 0.00 99 1015.6
20260905112529 23 218 0.0 0.0 0.00 0.00 0.00 99 1015.4
20260905112024 23 218 0.0 0.0 0.00 0.00 0.00 99 1015.5
20260905111519 23 218 0.0 0.0 0.00 0.00 0.00 99 1015.1
20260905111018 23 218 0.0 0.0 0.00 0.00 0.00 99 1015.6
20260905110517 23 218 0.0 0.0 0.00 0.00 0.00 99 1015.2
20260905110013 23 218 0.0 0.0 0.00 0.00 0.00 99 1015.2
20260905105507 23 219 0.0 0.0 0.00 0.00 0.00 99 1015.1
20260905105001 23 218 0.0 0.0 0.00 0.00 0.00 99 1015.1
20260905104457 23 218 0.0 0.0 0.00 0.00 0.00 99 1015.1
20260905103957 23 218 0.0 0.0 0.00 0.00 0.00 99 1015.0
20260905103452 23 219 0.0 0.0 0.00 0.00 0.00 99 1015.2
20260905102948 23 218 0.0 0.0 0.00 0.00 0.00 99 1014.9
20260905102444 23 218 0.0 0.0 0.00 0.00 0.00 99 1015.1
20260905101939 23 218 0.0 0.0 0.00 0.00 0.00 99 1015.0
20260905101437 23 218 0.0 0.0 0.00 0.00 0.00 99 1015.0
20260905100932 23 218 0.0 0.0 0.00 0.00 0.00 99 1014.9
20260905100428 22 218 0.0 0.0 0.00 0.00 0.00 99 1014.9
20260905095927 23 219 0.0 0.0 0.00 0.00 0.00 99 1014.8
20260905095422 23 219 0.0 0.0 0.00 0.00 0.00 99 1014.9
20260905094921 23 218 0.0 0.0 0.00 0.00 0.00 99 1014.9
20260905094418 23 218 0.0 0.0 0.00 0.00 0.00 99 1014.9